Regional Weather Roundup
Issued by NWS

Home | Current Version | Previous Version | Text Only | Print | Product List | Glossary On
Versions: 1 2 3 4 5 6 7 8 9 10 11 12 13 14 15 16 17 18 19 20 21 22 23 24 25 26 27 28 29 30 31 32 33 34 35 36 37 38 39 40 41 42 43 44 45 46 47 48 49 50
000
ASUS45 KTFX 062010
RWRMT
MONTANA REGIONAL WEATHER ROUNDUP
NATIONAL WEATHER SERVICE GREAT FALLS MT
200 PM MDT MON JUL 06 2015

NOTE: "FAIR" INDICATES FEW OR NO CLOUDS BELOW 12000 FEET WITH NO
SIGNIFICANT WEATHER AND/OR OBSTRUCTIONS TO VISIBILITY.

MTZ001>007-043-062100-
WEST OF THE DIVIDE

CITY           SKY/WX    TMP DP  RH WIND       PRES   REMARKS
KALISPELL      CLEAR     74  38  27 SE5       30.13F
MISSOULA       SUNNY     79  46  31 NW10      30.11F
BUTTE          MOSUNNY   76  46  34 NE8       30.18F
MULLAN PASS    SUNNY     70  40  33 CALM      30.26S
DEER LODGE       N/A     73  48  40 N7G18     30.19F
EUREKA           N/A     79  37  22 CALM      30.10F
HAMILTON         N/A     75  54  46 N9        30.09F
LIBBY            N/A     79  45  29 SE5       30.09F
PLAINS           N/A     78  43  28 S1        30.11F
RONAN            N/A     73  46  38 NW6       30.18F
THOMPSON FALLS   N/A     81  42  25 SE5       30.12F
$$

MTZ008-052>055-062100-
SOUTHWEST MONTANA

CITY           SKY/WX    TMP DP  RH WIND       PRES   REMARKS
BOZEMAN        SUNNY     73  49  42 VRB3      30.19F
DILLON         SUNNY     73  53  49 NW6       30.17F
W YELLOWSTONE  SUNNY     68  48  49 S5        30.26F
THREE FORKS      N/A     70  61  73 NE8       30.16F
$$

MTZ009-010-012-014-046-048-049-054-062100-
EAST SLOPES AND CENTRAL MONTANA

CITY           SKY/WX    TMP DP  RH WIND       PRES   REMARKS
CUT BANK       SUNNY     68  46  45 S8        30.17F
GREAT FALLS    MOSUNNY   69  49  48 VRB5      30.17F
MALMSTROM AFB  PTSUNNY   67  49  52 S3        30.17F
HELENA         SUNNY     69  50  50 VRB6      30.16F
CONRAD           N/A     67  56  67 E2        30.18F
$$

MTZ011-013-016-021-045-047-050-051-062100-
NORTH CENTRAL MONTANA

CITY           SKY/WX    TMP DP  RH WIND       PRES   REMARKS
HAVRE          SUNNY     69  43  38 SW6       30.17F
LEWISTOWN      SUNNY     71  47  42 VRB6      30.21F
CHINOOK          N/A     70  46  43 SE8       30.17F
FORT BENTON      N/A     70  48  46 SE5       30.17F
$$

MTZ017>020-022>027-061-062-062100-
NORTHEAST MONTANA

CITY           SKY/WX    TMP DP  RH WIND       PRES   REMARKS
GLASGOW        PTSUNNY   71  43  36 W9G16     30.19S
JORDAN           N/A     71  46  40 CALM      30.20F
SIDNEY         MOSUNNY   70  46  43 N3        30.19S
WOLF POINT     PTSUNNY   74  47  38 VRB7      30.19S HAZE
MALTA            N/A     70  44  38 CALM      30.14F
PLENTYWOOD       N/A     68  46  45 NE6       30.19F
POPLAR           N/A     70  46  43 W3        30.19F
SCOBEY           N/A     69  44  40 N7        30.17F
$$

MTZ028>42-056>058-062100-
SOUTHCENTRAL AND SOUTHEAST MONTANA

CITY           SKY/WX    TMP DP  RH WIND       PRES   REMARKS
BAKER          PTSUNNY   70  49  47 W12       30.22S
BILLINGS       MOSUNNY   67  48  50 NE6       30.23F
LIVINGSTON     MOSUNNY   69  50  50 VRB7      30.21F
MILES CITY     CLOUDY    70  49  47 W6        30.20F
EKALAKA          N/A     66  48  52 NW7       30.20F
FORSYTH          N/A     70  48  46 N6        30.20F
LAUREL           N/A     70  48  45 NE1       30.19F
ROUNDUP          N/A     67  45  45 CALM      30.12F
$$

REGIONAL REPORTS...DAKOTAS

CITY           SKY/WX    TMP DP  RH WIND       PRES   REMARKS
WILLISTON      PTSUNNY   68  49  50 N10       30.20S HAZE
MINOT          MOSUNNY   65  47  52 N9        30.17S
DICKINSON      PTSUNNY   70  50  49 NW12      30.17S
BEACH          FAIR      68  46  45 N9G16     30.21S
CROSBY         FAIR      64  45  48 CALM      30.21S
BISMARCK       PTSUNNY   70  51  51 N13       30.15S HAZE
GRAND FORKS    PTSUNNY   63  48  58 N15G22    30.10S
FARGO          PTSUNNY   67  47  48 N22G30    30.09R
BUFFALO SD       N/A     69  50  50 NW8       30.16S
RAPID CITY     MOSUNNY   71  54  54 N9        30.23S
$$

REGIONAL REPORTS...WYOMING/IDAHO/WASHINGTON

CITY           SKY/WX    TMP DP  RH WIND       PRES   REMARKS
GILLETTE       CLOUDY    64  52  64 N6        30.26F
SHERIDAN       CLOUDY    59  52  77 CALM      30.26F
BUFFALO WY     CLOUDY    56  52  86 S3        30.30F FOG
CODY           CLOUDY    64  50  59 SE5       30.26S
YELLOWSTONE LA   N/A     62  44  51 VRB5      30.35F
IDAHO FALLS    LGT RAIN  62  58  86 CALM      30.19F
SALMON         MOSUNNY   81  52  36 W7        30.04F
BOISE          MOSUNNY   88  50  27 CALM      30.04F
SPOKANE        PTSUNNY   85  41  21 VRB6      30.04F
$$

REGIONAL REPORTS...ALBERTA

CITY           SKY/WX    TMP DP  RH WIND       PRES   REMARKS
EDMONTON       MOSUNNY   72  43  35 S9        30.06F
CALGARY        PTSUNNY   72  50  46 S13       30.09F
LETHBRIDGE     MOSUNNY   72  46  40 SE9G22    30.11F
MEDICINE HAT   MOSUNNY   72  45  37 S10       30.14F
WATERTON GATE    N/A     73  43  33 SW5         N/A
CARDSTON         N/A     72  50  46 SE6         N/A
$$

REGIONAL REPORTS...SASKATCHEWAN

CITY           SKY/WX    TMP DP  RH WIND       PRES   REMARKS
SWIFT CURRENT  PTSUNNY   66  45  45 S3        30.17F
REGINA         MOSUNNY   66  41  39 NE3       30.19F
SASKATOON      MOSUNNY   68  45  42 W12       30.17F
CYPRESS HILLS    N/A     61  43  51 S8          N/A
VAL MARIE        N/A     68  41  37 S3          N/A
ROCKGLEN         N/A     68  48  49 N6          N/A
ASSINIBOIA       N/A     70  41  35 S12G17      N/A
$$


USA.gov is the U.S. government's official web portal to all federal, state and local government web resources and services.